Showing default

AAC-AIS-SAT2, 56996

Orbit data source: Space-Track

AAC-AIS-SAT2, 56996 is a payload satellite owned by AAC ClydeSpace (UK) in SSO that was launched on Mon, 12 Jun 2023 UTC via an FALCON 9 launch vehicle from the Air Force Western Test Range (AFWTR). Payload-class satellites include a variety of spacecraft equipped with specific instruments for various scientific and technological missions. These include communications satellites like Starlink; space stations such as the ISS; scientific satellites like the Hubble; Earth observation satellites from companies like Planet Labs, Umbra, and HawkEye 360; GPS; miniature CubeSats for education and research; and military/defense satellites.

Loading next visibility...
Identifier
56996, 2023-084BY
Orbit
SSO
Country
Flag of UKUK
Related business
Manufacturer
AAC ClydeSpace
Mission
Operational Commercial Communications
Bus & Motor
CUBESAT 3U, Unknown motor
Mass
4 kg wet, 4 kg dry
Launch date (UTC)
2023-06-12 (3 years ago)
Launch vehicle
FALCON 9
Launch site
Air Force Western Test Range (AFWTR)
Object type
Payload
Rocket body
Debris
Shape & HBR
Box, 1.0 m
Radar Cross Section
0.035 m², Small (<0.1 m²)

Expand to show TLE details & history
Last TLE update: 12 hours ago

TLE from 12 hours ago
0 AAC-AIS-SAT2
1 56996U 23084BY  26100.32258806  .00002970  00000-0  34440-3 0  9991
2 56996  98.1372 238.7002 0056325 319.5056  40.1973 14.85119784143302
Epoch: 2026-04-10T07:44Z
TLE epoch observation values (Epoch: 2026-04-10T07:44:31.608Z)
Latitude
-0°
Longitude
-75.98941°
Altitude
586.239 km
Speed
7.583 km/s
True Right ascension
15h 54m 48s
True Declination
0° 00' 00"
Sunlit
Object was in full shadow at epoch
Visualization orbit readout
Latitude
Unknown
Longitude
Unknown
Altitude
Unknown
Speed
Unknown
Apparent Right ascension
Unknown
Apparent Declination
Unknown
Sunlit
N/A
Visualization observer readout
Local Sidereal Time
02:15:55
Azimuth
Unknown
Elevation
Unknown
Doppler factor
Unknown
Orbital elements
Apogee altitude
649.617 km
Perigee altitude
570.892 km
Semi-major axis
6,988.392 km
Eccentricity
0.00563
Inclination
98.1372°
RAAN
238.7002°
Arg. of periapsis
319.5056°
True anomaly
40.61613°
Mean anomaly
40.1973°
Eccentric anomaly
40.40649°
Mean motion
3.71516 °/min
Orbital period
96.9 mins
BSTAR
0.0003444
Loading maneuver chart data...
Computing Atmospheric mass density...
Loading historical data...
Loading historical data...
Loading historical data...
Loading historical data...
Loading historical data...
Loading historical data...
Loading historical data...

Documentation

Showing up to 5 results
|